Location: ???????????
(54.5822°N, 39.1075°E)
Time: 13:56:29
(UTC+00:00)

Meteor 1-13 Rocket - Pass Details

Date: 19 May 2025
Orbit: 829 x 911 km, 81.3° (Epoch: 19 June)

Event Time Altitude Azimuth Distance (km) Brightness Sun altitude
Exits shadow 22:24:21 20° 186° (S) 1,955 5.5 -14.2°
Maximum altitude 22:28:34 81° 101° (E) 924 4.4 -14.0°
Drops below altitude 10° 22:34:33 10° 15° (NNE) 2,612 8.2 -13.8°
Sets 22:37:02 0° 15° (NNE) 3,559 9.5 -13.6°
